Location: Pittsburgh
(40.4410°N, 79.9960°W)
Time: 22:07:56
(UTC-05:00)

Envisat - Visible Passes

Search period start: 05 March 2026 00:00
Search period end: 15 March 2026 01:00
Orbit: 761 x 763 km, 98.4° (Epoch: 5 March)

Date Brightness Start Highest point End Pass type
(mag) Time Alt. Az. Time Alt. Az. Time Alt. Az.
6 Mar 5.7 03:31:49 10° N 03:32:00 11° N 03:32:00 11° N visible
8 Mar 5.5 04:55:31 10° N 04:55:53 12° N 04:55:53 12° N visible
9 Mar 5.6 04:17:15 10° N 04:17:45 13° N 04:17:45 13° N visible
10 Mar 6.0 03:39:32 10° NNE 03:39:38 11° NNE 03:39:38 11° NNE visible
10 Mar 5.4 05:19:32 10° NNW 05:19:46 11° NNW 05:19:46 11° NNW visible
11 Mar 5.3 04:40:49 10° N 04:41:39 14° N 04:41:39 14° N visible
12 Mar 5.6 04:02:46 10° NNE 04:03:31 14° NNE 04:03:31 14° NNE visible
13 Mar 6.0 03:25:15 10° NNE 03:25:23 11° NNE 03:25:23 11° NNE visible
13 Mar 5.2 05:04:37 10° NNW 05:05:31 14° NNW 05:05:31 14° NNW visible
14 Mar 5.2 04:26:12 10° N 04:27:24 17° N 04:27:24 17° N visible
